Home   Weather   Midland   Past weeks

Flag for USA Past Weather in Midland, Texas, USA — Yesterday and Last 2 Weeks

Now
59 °F

Sunny.


Feels Like: 60 °F
Forecast: 43 / 72 °F
Wind: 3 mph from East

Location: Midland - Midland Airpark

Current Time: Apr 23, 2017 at 11:24:35 am

Latest Report: Apr 23, 2017 at 11:00 am


Visibility: 10 mi

Pressure: 30.28 "Hg (27.39 "Hg at 847m altitude)

Humidity: 44%

Dew Point: 37 °F

Location of MidlandLocation

Past Weather in Midland — Graph

°F

Midland Temperature Yesterday

Maximum temperature yesterday: 67 °F (at 4:55 pm)
Minimum temperature yesterday: 50 °F (at 7:55 am)
Average temperature yesterday: 59 °F

High & Low Weather Summary for the Past Weeks

 TemperatureHumidityPressure
High93 °F (Apr 8, 5:15 pm)100% (Apr 12, 11:55 pm)30.29 "Hg (Apr 12, 11:55 pm)
Low46 °F (Apr 23, 6:55 am)7% (Apr 8, 5:55 pm)29.77 "Hg (Apr 21, 4:55 pm)
Average71 °F56%30.01 "Hg
* Reported Apr 8 10:15 am — Apr 23 10:15 am, Midland, Weather by CustomWeather, © 2017

Note: Actual official high and low records may vary slightly from our data, if they occured in-between our weather recording intervals... More about our weather records

Advertising

Midland Weather History for the Previous 24 Hours

Scroll right to see more
 ConditionsComfort  
Time TempWeatherWind HumidityBarometerVisibility
10:15 am
Sun, Apr 23
56 °FSunny.No wind49%30.29 "Hg10 mi
9:55 am55 °FSunny.3 mph52%30.29 "Hg10 mi
9:35 am54 °FSunny.3 mph55%30.29 "Hg10 mi
9:20 am53 °FSunny.No wind56%30.29 "Hg10 mi
8:55 am52 °FSunny.No wind58%30.29 "Hg10 mi
8:15 am49 °FSunny.No wind63%30.28 "Hg10 mi
7:55 am47 °FSunny.No wind71%30.27 "Hg10 mi
6:55 am46 °FClear.No wind70%30.26 "Hg10 mi
6:35 am47 °FClear.No wind67%30.26 "Hg10 mi
6:15 am47 °FClear.No wind66%30.26 "Hg10 mi
5:55 am47 °FClear.No wind66%30.26 "Hg10 mi
5:35 am47 °FClear.3 mph69%30.26 "Hg10 mi
5:15 am47 °FClear.5 mph69%30.26 "Hg10 mi
4:55 am47 °FClear.5 mph68%30.26 "Hg10 mi
4:35 am47 °FClear.3 mph68%30.26 "Hg10 mi
4:15 am48 °FClear.5 mph67%30.27 "Hg10 mi
4:00 am48 °FClear.5 mph66%30.27 "Hg10 mi
3:35 am49 °FClear.3 mph62%30.27 "Hg10 mi
2:55 am50 °FClear.3 mph61%30.28 "Hg10 mi
2:15 am52 °FClear.6 mph55%30.28 "Hg10 mi
1:55 am53 °FClear.7 mph55%30.28 "Hg10 mi
1:35 am51 °FClear.7 mph60%30.27 "Hg10 mi
1:15 am51 °FClear.5 mph61%30.27 "Hg10 mi
12:55 am51 °FClear.5 mph61%30.27 "Hg10 mi
12:35 am52 °FClear.6 mph58%30.27 "Hg10 mi
11:55 pm
Sat, Apr 22
54 °FClear.7 mph54%30.26 "Hg10 mi
11:40 pm55 °FClear.7 mph51%30.26 "Hg10 mi
11:15 pm56 °FClear.8 mph50%30.25 "Hg10 mi
10:55 pm56 °FClear.7 mph50%30.25 "Hg10 mi
10:35 pm58 °FClear.6 mph47%30.25 "Hg10 mi
10:15 pm58 °FClear.7 mph46%30.24 "Hg10 mi
9:55 pm59 °FClear.8 mph45%30.22 "Hg10 mi
9:35 pm60 °FClear.10 mph43%30.21 "Hg10 mi
8:55 pm61 °FClear.10 mph41%30.20 "Hg10 mi
8:35 pm62 °FClear.9 mph41%30.19 "Hg10 mi
7:55 pm64 °FSunny.10 mph38%30.18 "Hg10 mi
7:40 pm64 °FSunny.15 mph36%30.18 "Hg10 mi
7:15 pm65 °FSunny.14 mph34%30.17 "Hg10 mi
6:55 pm66 °FSunny.16 mph32%30.16 "Hg10 mi
6:35 pm67 °FSunny.12 mph31%30.16 "Hg10 mi
6:15 pm67 °FSunny.12 mph31%30.15 "Hg10 mi
5:55 pm67 °FSunny.13 mph31%30.15 "Hg10 mi
5:35 pm67 °FSunny.15 mph31%30.15 "Hg10 mi
5:15 pm67 °FSunny.12 mph32%30.15 "Hg10 mi
4:55 pm67 °FSunny.12 mph31%30.15 "Hg10 mi
4:35 pm67 °FSunny.13 mph32%30.15 "Hg10 mi
4:15 pm66 °FSunny.12 mph32%30.16 "Hg10 mi
3:55 pm66 °FSunny.14 mph33%30.16 "Hg10 mi
3:35 pm65 °FSunny.13 mph34%30.17 "Hg10 mi
3:15 pm65 °FSunny.12 mph34%30.18 "Hg10 mi
2:55 pm64 °FSunny.13 mph36%30.18 "Hg10 mi
2:35 pm63 °FSunny.8 mph38%30.19 "Hg10 mi
1:35 pm62 °FOvercast.10 mph43%30.21 "Hg10 mi
1:15 pm61 °FOvercast.10 mph43%30.22 "Hg10 mi
12:55 pm60 °FMore clouds than sun.9 mph46%30.23 "Hg10 mi
12:15 pm58 °FMostly cloudy.15 mph50%30.23 "Hg10 mi
11:55 am57 °FMostly cloudy.14 mph52%30.23 "Hg10 mi
11:35 am56 °FMore clouds than sun.12 mph52%30.23 "Hg10 mi
11:15 am55 °FMore clouds than sun.12 mph55%30.23 "Hg10 mi
Weather by CustomWeather, © 2017

See weather overviewHow to use our weather pages